www.pogodaiklimat.ru

Архив погоды в Дробета-Турну-Северине (Румыния)

Время
(UTC), дата
04 6.06
05 6.06
06 6.06
07 6.06
08 6.06
09 6.06
10 6.06
11 6.06
12 6.06
13 6.06
14 6.06
15 6.06
16 6.06
17 6.06
18 6.06
19 6.06
20 6.06
21 6.06
22 6.06
23 6.06
00 7.06
01 7.06
02 7.06
03 7.06
04 7.06
05 7.06
06 7.06
07 7.06
08 7.06
09 7.06
10 7.06
11 7.06
12 7.06
13 7.06
14 7.06
15 7.06
16 7.06
17 7.06
18 7.06
19 7.06
20 7.06
21 7.06
22 7.06
23 7.06
00 8.06
01 8.06
02 8.06
03 8.06
04 8.06
05 8.06
06 8.06
07 8.06
08 8.06
09 8.06
10 8.06
11 8.06
12 8.06
13 8.06
14 8.06
15 8.06
16 8.06
17 8.06
18 8.06
19 8.06
20 8.06
21 8.06
22 8.06
23 8.06
00 9.06
01 9.06
02 9.06
03 9.06
04 9.06
05 9.06
06 9.06
07 9.06
08 9.06
09 9.06
10 9.06
11 9.06
12 9.06
13 9.06
14 9.06
15 9.06
16 9.06
17 9.06
18 9.06
19 9.06
20 9.06
21 9.06
22 9.06
23 9.06
00 10.06
01 10.06
02 10.06
03 10.06
04 10.06
05 10.06
06 10.06
07 10.06
08 10.06
09 10.06
10 10.06
11 10.06
12 10.06
13 10.06
14 10.06
15 10.06
16 10.06
17 10.06
18 10.06
19 10.06
20 10.06
21 10.06
22 10.06
23 10.06
00 11.06
01 11.06
02 11.06
03 11.06
04 11.06
05 11.06
06 11.06
07 11.06
08 11.06
09 11.06
10 11.06
11 11.06
12 11.06
13 11.06
14 11.06
15 11.06
16 11.06
17 11.06
18 11.06
19 11.06
20 11.06
21 11.06
22 11.06
23 11.06
00 12.06
01 12.06
02 12.06
03 12.06
04 12.06
05 12.06
06 12.06
07 12.06
08 12.06
09 12.06
10 12.06
11 12.06
12 12.06
13 12.06
14 12.06
15 12.06
16 12.06
17 12.06
18 12.06
19 12.06
20 12.06
21 12.06
22 12.06
23 12.06
00 13.06
01 13.06
02 13.06
03 13.06
Ветер
(напр.,м/с)
Видим. Явления Облачность Т
(С)
Тd
(С)
f
(%)
Тe
(С)
Тes
(С)
Комфортность P
(гПа)
Po
(гПа)
Тmin
(С)
Tmax
(С)
R
(мм)
R24
(мм)
S
(см)
СВ 1-2 {3} 20 км ясно +16.6 +13.7 83 +17 +18 1015.7 1006.4
В 1-2 {3} 17 км ясно +18.7 +14.4 76 +21 +24 комфорт 1016.1 1006.8
В 1-2 {2} 20 км ясно +21.3 +15.2 68 +24 +32 комфорт 1016.4 1007.1 +16.5 +24.4 0
ЮВ 2-3 {3} 20 км ясно +23.4 +15.5 61 +28 +38 душно 1016.8 1007.7
Ю 1-2 {2} 20 км ясно +26.3 +16.0 53 +30 +46 душно 1016.9 1007.8
ЮЗ 2-4 {4} 20 км ясно +27.0 +14.7 47 +30 +47 душно 1017.0 1008.0
ЮВ 1-3 {4} 20 км 1/1 1000 м
[Cu hum]
+28.8 +13.9 40 +31 +51 опасность солнечного удара 1017.2 1008.2
Ю 2-4 {4} 20 км 3/3 1000 м
[Cu hum]
+29.5 +12.5 35 +31 +44 жарко 1017.1 1008.1
ЮЗ 2-3 {5} 20 км 4/4 1000 м
[Cu med, cong]
+29.5 +10.3 30 +30 +40 жарко 1016.8 1007.8 0
ЮЗ 2-4 {4} 20 км 5/5 600 м
[Cb calv]
+30.4 +10.7 30 +31 +38 жарко 1016.4 1007.5
ЮЗ 1-4 {4} 20 км 5/5 600 м
[Cb calv]
+31.2 +10.1 27 +31 +37 жарко 1016.2 1007.3
ЮЗ 2-4 {4} 20 км 4/4 600 м
[Cb calv]
+30.7 +12.3 32 +31 +35 жарко 1015.7 1006.8
З 2-4 {5} 20 км ясно +30.3 +12.4 33 +31 +34 жарко 1015.5 1006.5
З 1-3 {4} 20 км ясно +30.1 +15.0 40 +32 +33 жарко 1015.3 1006.4
З 2-3 {3} 20 км ясно +27.3 +16.6 52 +31 +31 душно 1015.5 1006.5 +21.4 +31.3 0
З 3-3 {4} 20 км ясно +24.0 +17.4 67 +28 +28 душно 1015.9 1006.8
С 1-2 {4} 20 км ясно +23.5 +15.1 59 +26 +26 жарко 1016.7 1007.6
В 2-2 {2} 20 км ясно +22.4 +17.5 74 +27 +27 душно 1017.1 1007.9
В 1-2 {2} 20 км ясно +20.6 +17.2 81 +25 +25 комфорт 1017.3 1008.1
В 1-1 {1} 20 км ясно +19.5 +17.2 87 +23 +23 комфорт 1017.5 1008.2
С 2-3 {3} 20 км ясно +17.7 +15.2 85 +18 +18 1017.4 1008.0 0
СВ 1 20 км ясно +18.1 +14.3 78 +19 +19 1017.3 1008.0
С 1-2 {2} 20 км ясно +17.0 +14.0 82 +18 +18 1017.2 1007.9
СВ 1-1 {2} 20 км ясно +17.4 +13.9 80 +18 +18 1017.3 1008.0
штиль 0-1 {1} 20 км ясно +17.4 +14.4 83 +17 +18 1017.5 1008.2
В 1-2 {2} 20 км ясно +19.8 +16.0 79 +23 +27 комфорт 1017.7 1008.4
ЮВ 1-2 {2} 20 км ясно +22.1 +16.3 70 +26 +34 душно 1018.0 1008.8 +16.9 +27.3 0
Ю 1-2 {2} 20 км ясно +24.2 +16.4 62 +28 +40 душно 1017.9 1008.7
Ю 1-3 {3} 20 км ясно +26.3 +14.6 49 +29 +45 жарко 1017.6 1008.5
Ю 2-3 {3} 20 км 3/0
[Ac trans]
+28.0 +15.7 47 +31 +45 душно 1017.6 1008.6
Ю 2-3 {4} 20 км 3/3 1000 м
[Cu hum]
+29.6 +16.6 46 +33 +46 душно 1017.4 1008.4
ЮВ 1-5 {5} 20 км 4/4 1000 м
[Cu med, cong]
+29.9 +15.0 40 +32 +46 жарко 1016.8 1007.9
З 2-4 {5} 20 км 5/4 1000 м
[Cu med, cong Ac trans]
+30.6 +14.3 37 +32 +42 жарко 1016.4 1007.4 0
ЮЗ 2-3 {4} 20 км 6/4 1000 м
[Cu med, cong Ac trans]
+31.3 +12.9 33 +32 +39 жарко 1015.7 1006.8
ЮЗ 2-4 {4} 20 км 6/4 1000 м
[Cu med, cong Ac trans]
+31.5 +11.6 30 +32 +37 жарко 1015.1 1006.2
ЮЗ 1-3 {4} 20 км 4/1 1000 м
[Cu hum Ac trans]
+31.9 +12.5 31 +33 +38 жарко 1014.4 1005.5
З 3-4 {5} 20 км 4/0
[Ac trans]
+30.9 +12.1 32 +32 +33 жарко 1014.2 1005.3
З 2-3 {4} 20 км 4/0
[Ac trans Ci sp]
+29.4 +13.3 37 +31 +32 жарко 1014.1 1005.1
З 2-2 {3} 20 км 6/0
[Cs]
+27.3 +16.0 50 +31 +31 душно 1014.0 1005.0 +22.0 +32.2 0
С 1-2 {3} 20 км 8/0
[Cs]
+24.1 +14.8 56 +27 +27 жарко 1014.2 1005.1
В 1-2 {2} 20 км 6/0
[Cs]
+23.0 +15.7 63 +27 +27 душно 1014.6 1005.5
В 1-2 {3} 20 км ясно +22.1 +17.2 74 +27 +27 душно 1014.8 1005.6
В 1-1 {2} 17 км ясно +20.7 +16.7 78 +25 +25 комфорт 1015.1 1005.9
СВ 1-1 {2} 20 км ясно +19.9 +16.0 78 +23 +23 комфорт 1015.0 1005.7
штиль 0-1 {2} 20 км ясно +19.6 +15.9 79 +21 +21 комфорт 1014.9 1005.7 0
штиль 0-1 {2} 20 км ясно +18.5 +15.8 84 +19 +19 1014.6 1005.4
В 1-1 {2} 20 км ясно +18.0 +15.8 87 +19 +19 1014.5 1005.2
В 1-2 {2} 20 км ясно +17.7 +16.1 90 +19 +19 1014.5 1005.2
В 2-3 {3} 20 км ясно +17.8 +16.0 89 +18 +19 1014.6 1005.3
В 1-2 {2} 20 км ясно +20.2 +15.7 75 +24 +27 комфорт 1014.5 1005.3
ЮВ 1-2 {2} 20 км ясно +22.4 +16.2 68 +27 +34 душно 1014.5 1005.3 +17.4 +27.3 0
ЮЗ 1-2 {2} 20 км ясно +24.3 +16.6 62 +28 +40 душно 1014.4 1005.3
ЮЗ 1-3 {3} 20 км ясно +26.5 +16.7 55 +30 +47 душно 1014.1 1005.0
ЮЗ 2-4 {4} 20 км ясно +28.8 +15.7 45 +32 +49 душно 1013.7 1004.7
ЮЗ 2-4 {4} 20 км 1/1 1000 м
[Cu hum]
+30.7 +13.6 35 +32 +49 жарко 1013.4 1004.5
ЮЗ 2-4 {4} 20 км 3/3 1000 м
[Cu hum]
+32.1 +13.1 31 +33 +46 жарко 1012.9 1004.0
ЮЗ 2-4 {5} 20 км 3/3 1000 м
[Cu med, cong]
+32.8 +11.3 27 +33 +45 жарко 1012.4 1003.5 0
ЮЗ 4-6 {6} 20 км 3/3 1000 м
[Cu med, cong]
+33.4 +10.6 25 +33 +39 жарко 1011.7 1002.9
З 2-4 {5} 20 км 5/3 1000 м
[Cu med, cong Ci sp]
+33.5 +10.6 25 +33 +40 жарко 1011.3 1002.5
З 3-5 {5} 20 км 6/4 600 м
[Cb calv Ci sp]
+33.5 +11.4 26 +33 +36 жарко 1010.9 1002.1
З 3-4 {5} 20 км 6/3 600 м
[Cb calv Ci sp]
+31.0 +12.9 33 +32 +33 жарко 1010.4 1001.5
З 2-3 {5} 20 км 5/3 600 м
[Cb calv Ac trans]
+31.4 +15.4 38 +34 +34 душно 1010.4 1001.6
З 1-2 {3} 20 км 4/0
[Ac trans]
+29.6 +16.1 44 +33 +33 душно 1010.5 1001.6 +22.7 +33.9 0
СВ 1-3 {3} 20 км 4/0
[Ac trans]
+25.5 +16.9 59 +29 +29 душно 1011.0 1001.9
СВ 2-3 {3} 20 км 3/0
[Ac trans]
+24.1 +17.0 65 +28 +28 душно 1011.7 1002.6
С 1-3 {3} 20 км 4/0
[Ac trans]
+23.3 +15.9 63 +28 +28 душно 1011.9 1002.8
С 2-3 {4} 20 км 5/0
[Ac As]
+22.5 +15.5 65 +26 +26 жарко 1012.2 1003.0
С 1-2 {4} 20 км 3/0
[Ac trans]
+21.7 +15.2 67 +25 +25 комфорт 1012.2 1003.1
СЗ 1-2 {3} 20 км ясно +21.4 +16.7 75 +25 +25 комфорт 1011.8 1002.7 0
С 2-3 {3} 20 км ясно +20.7 +14.7 68 +24 +24 комфорт 1011.7 1002.5
З 1-3 {3} 20 км ясно +20.4 +15.6 74 +24 +24 комфорт 1011.3 1002.1
СЗ 1-2 {3} 20 км 4/0
[Ac trans]
+19.0 +14.6 76 +21 +21 комфорт 1011.3 1002.0
С 1-1 {2} 20 км 8/0
[Ac As]
+19.7 +14.7 73 +23 +23 комфорт 1011.4 1002.2
С 1-1 {1} 20 км 9/0
[Ac As Ci sp]
+20.6 +16.2 76 +25 +27 комфорт 1011.3 1002.1
С 1-3 {4} 20 км 9/0
[Ac trans Cs]
+24.0 +15.6 59 +27 +32 жарко 1011.1 1002.0 +18.6 +29.6 0
СВ 2-4 {5} 20 км 8/0
[Ac trans Cs]
+25.5 +14.7 51 +28 +35 жарко 1010.9 1001.9
СВ 2-4 {5} 20 км 6/0
[Ac trans Cs]
+26.7 +14.9 48 +29 +41 жарко 1010.7 1001.7
В 2-4 {4} 20 км 8/0
[Cs]
+28.2 +15.2 45 +31 +45 душно 1010.5 1001.5
ЮВ 1-4 {4} 20 км 6/0
[Cs]
+29.6 +16.4 45 +33 +53 опасность солнечного удара 1010.4 1001.5
Ю 2-4 {5} 20 км 6/0
[Cs]
+29.5 +15.5 43 +32 +49 душно 1010.1 1001.2
ЮЗ 1-3 {4} 20 км 6/1 1000 м
[Cu hum Cs]
+30.7 +16.1 41 +34 +50 очень душно 1009.9 1001.0 0
Ю 1-4 {6} 20 км 8/3 1000 м
[Cu med, cong Cs]
+30.9 +17.4 44 +35 +45 очень душно 1009.4 1000.6
З 5-7 {8} 20 км 9/1 1000 м
[Cu med, cong Cs]
+31.8 +16.9 41 +35 +39 очень душно 1009.0 1000.1
З 5-7 {8} 20 км 9/0
[Cs]
+31.5 +16.9 42 +35 +38 очень душно 1008.6 999.8
З 3-6 {7} 20 км 9/0
[Cs]
+30.8 +17.5 45 +35 +37 очень душно 1008.4 999.5
З 2-3 {6} 20 км 9/0
[Cs]
+29.7 +17.9 49 +34 +35 очень душно 1008.6 999.7
З 2-2 {3} 20 км 9/0
[Cs]
+28.0 +18.8 57 +33 +33 очень душно 1008.8 999.9 +23.6 +32.1 0
З 2-3 {3} 20 км 9/0
[Ac As]
+26.9 +18.8 61 +32 +32 очень душно 1009.0 1000.0
З 2-2 {3} 17 км 6/0
[Ac As]
+25.0 +19.0 69 +30 +30 душно 1009.6 1000.6
С 1-2 {3} 19 км 4/0
[Ac As]
+22.8 +18.3 76 +28 +28 душно 1009.7 1000.6
В 1-1 {2} 20 км 8/0
[Ac As]
+23.3 +19.5 79 +30 +30 очень душно 1009.5 1000.4
ЮВ 1-2 {2} 20 км 9/0
[Ac As]
+22.7 +19.5 82 +29 +29 очень душно 1009.5 1000.4
СВ 1-3 {3} 18 км 8/0
[Ac As]
+22.3 +19.3 83 +28 +28 душно 1009.2 1000.1 0
С 1-2 {3} 18 км 3/0
[Ac As]
+21.1 +18.6 86 +25 +25 комфорт 1008.6 999.4
С 2-2 {2} 17 км ясно +20.0 +18.1 89 +24 +24 комфорт 1008.6 999.4
С 1-2 {2} 20 км 5/0
[Ac As]
+20.3 +18.1 87 +25 +25 комфорт 1008.7 999.5
З 1-2 {2} 19 км 9/0
[Ac As]
+21.1 +18.3 84 +25 +26 комфорт 1008.9 999.7
З 1-1 {1} 19 км 9/0
[Ac As]
+22.5 +18.9 80 +28 +29 душно 1009.2 1000.1
В 1-2 {3} 20 км 9/0
[Ac As]
+24.9 +18.2 66 +29 +32 душно 1009.2 1000.1 +19.9 +28.0 0
З 2-3 {3} 20 км 9/0
[Ac As]
+25.7 +19.2 67 +31 +35 очень душно 1010.0 1001.0
В 2-4 {4} 20 км 10/0
[Ac As]
+26.5 +18.9 63 +32 +36 очень душно 1008.7 999.7
Ю 2-5 {5} 20 км 9/3 600 м
[Cb calv Ac As]
+27.7 +19.2 60 +33 +38 очень душно 1008.5 999.6
Ю 1-3 {4} 20 км 9/3 600 м
[Cb calv Ac As]
+29.4 +18.3 51 +34 +40 очень душно 1007.9 999.0
ЮЗ 1-3 {4} 20 км 8/4 600 м
[Cb calv Ac trans]
+31.4 +19.9 51 +38 +46 очень душно 1007.3 998.5
штиль 0-2 {3} 20 км 9/4 600 м
[Cb calv Ac trans]
+32.2 +17.9 43 +37 +44 очень душно 1006.6 997.8 0
ЮЗ 1-2 {3} 20 км 8/4 600 м
[Cb calv Ac trans]
+32.1 +16.4 39 +35 +41 очень душно 1005.9 997.1
СВ 2-4 {5} 20 км 5/3 600 м
[Cb calv Ac trans]
+33.4 +19.1 43 +39 +45 очень душно 1004.8 996.1
СВ 2-5 {7} 20 км 1/1 600 м
[Cb calv]
+32.9 +20.3 48 +40 +45 очень душно 1003.9 995.2
С 2-6 {6} 20 км 3/0
[Ci sp]
+33.2 +20.0 46 +39 +42 очень душно 1003.0 994.2
С 2-5 {7} 20 км 5/3 1000 м
[Cu med, cong Ac trans Ci sp]
+31.7 +20.2 51 +38 +39 очень душно 1002.8 994.0
С 2-4 {6} 20 км 5/3 1000 м
[Cu med, cong Ac trans Ci sp]
+28.8 +19.8 58 +35 +35 очень душно 1002.8 993.9 +24.9 +33.9 0
З 1-2 {5} 20 км 1/0
[Ac trans]
+27.0 +19.4 63 +33 +33 очень душно 1003.5 994.6
штиль 0-1 {4} 15 км ясно +24.6 +20.7 79 +31 +31 очень душно 1004.5 995.5
ЮВ 1-2 {3} 20 км ясно +24.3 +20.0 77 +30 +30 очень душно 1005.2 996.2
ЮЗ 1-2 {2} 17 км ясно +23.1 +19.9 82 +30 +30 очень душно 1005.6 996.6
ЮВ 1 20 км ясно +22.5 +18.7 79 +28 +28 душно 1005.9 996.8
С 2-4 {4} 18 км ясно +20.8 +17.9 83 +25 +25 комфорт 1006.3 997.2 0
В 1-2 {5} 20 км ясно +21.2 +17.7 80 +25 +25 комфорт 1006.5 997.4
ЮЗ 1 20 км ясно +20.0 +16.5 80 +24 +24 комфорт 1006.8 997.7
ЮВ 1-2 {2} 20 км ясно +19.8 +18.0 89 +24 +24 комфорт 1007.1 997.9
ЮВ 1-2 {2} 20 км ясно +19.6 +17.8 89 +23 +24 комфорт 1007.4 998.2
ЮВ 1-2 {2} 20 км 4/0
[Ac trans]
+21.9 +17.2 75 +26 +29 душно 1007.4 998.3
Ю 1-2 {3} 14 км 4/0
[Ac trans]
+24.5 +18.0 67 +29 +34 душно 1007.7 998.7 +19.4 +28.7 0
З 2-4 {4} 20 км 4/0
[Ac trans]
+25.9 +17.7 61 +30 +38 душно 1007.9 998.9
З 3-4 {5} 20 км 5/0
[Ac As]
+28.2 +17.4 52 +32 +40 душно 1007.7 998.8
З 2-4 {4} 20 км 6/0
[Ac As]
+29.3 +16.1 45 +32 +43 душно 1007.5 998.7
З 4-6 {7} 20 км 4/0
[Ac trans]
+30.6 +13.7 36 +32 +42 жарко 1007.5 998.6
З 5-10 {10} 20 км 5/4 1000 м
[Cu med, cong Ac trans]
+31.3 +13.7 34 +33 +38 жарко 1007.3 998.4
З 4-8 {9} 20 км 8/5 600 м
[Cb calv Ac trans]
+32.4 +14.4 34 +34 +38 очень жарко 1007.3 998.5 0
З 5-8 {8} 20 км 8/5 600 м
[Cb calv Ac trans]
+31.5 +14.8 36 +33 +36 жарко 1007.6 998.7
СЗ 4-8 {13} 20 км 6/4 600 м
[Cb calv Ac trans]
+29.1 +16.4 46 +32 +36 душно 1008.5 999.6
З 4-7 {7} 20 км 5/4 600 м
[Cb calv Ac trans]
+29.5 +16.2 45 +33 +35 душно 1008.4 999.5
З 4-8 {8} 20 км 5/4 600 м
[Cb calv Ac trans]
+28.8 +16.3 47 +32 +33 душно 1008.7 999.8
СЗ 2-4 {7} 20 км 5/0
[Ac trans Ci sp]
+28.7 +16.5 48 +32 +33 душно 1009.2 1000.3
З 1-3 {4} 20 км 5/0
[Ac trans Ci sp]
+26.9 +16.0 51 +30 +30 душно 1009.5 1000.5 +24.2 +32.7 0
З 1-3 {5} 20 км 6/0
[Ac trans Ci sp]
+25.2 +15.0 53 +28 +28 жарко 1010.0 1001.0
СЗ 1-3 {3} 20 км 4/0
[Ac trans]
+23.6 +15.3 60 +27 +27 жарко 1010.7 1001.6
С 2-4 {4} 20 км ясно +22.4 +15.5 65 +26 +26 жарко 1011.1 1002.0
З 2-4 {5} 20 км ясно +21.9 +16.1 70 +26 +26 душно 1011.1 1002.0
З 4-6 {7} 20 км ясно +21.5 +15.6 69 +25 +25 комфорт 1011.5 1002.3
З 3-6 {8} 20 км ясно +21.2 +15.5 70 +24 +24 комфорт 1012.0 1002.8 0
ЮЗ 2-4 {6} 20 км ясно +20.8 +14.6 68 +24 +24 комфорт 1012.1 1002.9
СЗ 2-4 {5} 20 км 1/0
[Ac trans]
+20.5 +14.7 69 +24 +24 комфорт 1012.1 1002.9
З 3-6 {8} 20 км 3/0
[Ac trans]
+20.2 +15.0 72 +23 +23 комфорт 1012.4 1003.2
СВ 2-3 {7} 20 км 3/0
[Ac trans]
+18.7 +14.8 78 +20 +21 1012.5 1003.2
ЮВ 2-3 {3} 20 км 3/0
[Ac trans]
+20.2 +15.3 73 +23 +26 комфорт 1012.4 1003.2
В 1-2 {3} 20 км 3/0
[Ac trans]
+22.7 +15.6 64 +27 +33 душно 1012.6 1003.4 +18.7 +26.9 0
штиль 0-4 {4} 20 км 4/0
[Ac trans]
+24.1 +16.0 61 +27 +38 жарко 1012.4 1003.3
ЮЗ 1-3 {3} 20 км 5/0
[Ac trans]
+25.5 +14.1 49 +28 +39 жарко 1012.5 1003.4
В 1-3 {3} 20 км 8/0
[Ac As]
+27.0 +12.8 41 +29 +38 жарко 1011.9 1002.9
ЮВ 2-4 {5} 20 км 9/4 600 м
[Cb calv Ac As]
+27.4 +12.3 39 +29 +34 жарко 1012.0 1003.1
Ю 1-4 {4} 20 км 8/3 600 м
[Cb calv Ac trans]
+29.3 +12.4 35 +30 +39 жарко 1011.4 1002.5
штиль 0-3 {4} 20 км 9/3 1000 м
[Cu med, cong Cs]
+29.6 +13.8 38 +31 +45 жарко 1010.7 1001.8 0
З 3-5 {6} 20 км 9/5 600 м
[Cb calv Ac As]
+27.9 +13.8 42 +30 +32 жарко 1011.9 1003.0
СЗ 1-3 {4} 20 км 9/5 600 м
[Cb calv Ac As]
+27.9 +14.3 43 +30 +33 жарко 1011.4 1002.5
З 2-4 {5} 20 км 8/4 600 м
[Cb calv Ac As]
+27.4 +15.5 48 +30 +32 жарко 1011.2 1002.2
СЗ 3-5 {7} 20 км 8/4 600 м
[Cb calv Ac As]
+27.4 +13.7 43 +29 +30 жарко 1011.6 1002.7
СЗ 2-5 {6} 20 км 5/3 600 м
[Cb calv Ac trans]
+25.7 +14.3 49 +28 +29 жарко 1011.8 1002.7
СЗ 2-3 {3} 20 км 5/4 600 м
[Cb calv Ac trans]
+24.9 +15.5 56 +28 +28 жарко 1011.8 1002.8 +22.5 +29.7 0
З 2-3 {3} 20 км 8/4 600 м
[Cb calv Ac As]
+23.1 +15.9 64 +28 +28 душно 1012.3 1003.2
З 3-5 {5} 20 км 9/4 600 м
[Cb calv Ac As]
+22.6 +15.6 65 +27 +27 душно 1013.5 1004.3
СЗ 2-4 {5} 20 км в посл. час ливневой дождь 9/4 600 м
[Cb calv Ac As]
+20.6 +17.4 82 +25 +25 комфорт 1013.5 1004.3 1
З 2-4 {4} 20 км 8/4 600 м
[Cb calv Ac As]
+20.3 +17.5 84 +24 +24 комфорт 1013.7 1004.4
СЗ 1-3 {5} 20 км 9/4 600 м
[Cb calv Ac As]
+21.2 +17.1 77 +25 +25 комфорт 1014.0 1004.8
З 3-4 {4} 20 км в посл. час ливневой дождь 9/4 600 м
[Cb calv Ac As]
+20.2 +18.0 87 +24 +24 комфорт 1014.2 1004.9 0.1 0
З 4-6 {6} 12 км слаб. ливневой дождь 10/6 600 м
[Cb calv Ac As]
+19.4 +19.0 98 +22 +22 комфорт 1014.3 1005.1 0.9
штиль 0-1 {4} 3200 м слаб. ливневой дождь 10/10 600 м
[Cb cap]
+18.9 +18.9 100 +20 +20 1014.5 1005.2 2
СВ 1-1 {2} 5000 м в посл. час ливневой дождь 9/4 600 м
[Cb calv Ac As]
+18.8 +18.8 100 +21 +21 комфорт 1014.7 1005.4 3
Местоположение метеостанции Дробета-Турну-Северин (Румыния): широта 44.63 долгота 22.63 высота над уровнем моря 79 м.
В архиве по умолчанию представлена погода в Дробета-Турну-Северине за последнюю неделю. Архивные данные за месяц целиком и за предыдущие месяцы, начиная с января 2011 года, Вы можете получить, выбрав интересующий диапазон дат из раскрывающегося списка и нажав кнопку "Найти!".
*Определитесь, кто Вы:
Внимание! Время в таблицах - всемирное. Для получения местного времени необходимо прибавить поправку, которая равна 2 ч.
Некоторые строки с данными для отдельных станций могут быть выделены курсивом. Это означает, что фактические данные отсутствуют по различным причинам, а приведенные значения являются расчетными модельными данными для данного пункта наблюдений.
Смотрите также архив погоды в соседних городах и на ближайших метеорологических станциях:
Партнеры нашего сайта:      
Пояснения к столбцам:
  • Ветер - указаны скорость ветра в м/с - средняя за 10 мин, порывы в срок и между сроками (в фигурных скобках) и направление, откуда дует ветер: С - северный,
  • СВ - северо-восточный, В - восточный, ЮВ - юго-восточный, Ю - южный, ЮЗ - юго-западный, З - западный, СЗ - северо-западный.
  • Видимость - горизонтальная дальность видимости в метрах или километрах. При видимости от 1 до 10 км при отсутствии осадков обычно наблюдается дымка, при ухудшении видимости до 1 км и менее - туман. В сухую погоду видимость может ухудшаться дымом, пылью или мглою.
  • Явления - указаны атмосферные явления, наблюдавшиеся в срок или в последний час перед сроком; фигурными скобками обозначены явления, наблюдавшиеся между сроками (за 1-3 часа до срока); квадратными скобками обозначены град или гололедные отложения с указанием их диаметра в мм.
  • Облачность - указаны через наклонную черту общая и нижняя облачность в баллах и высота нижней границы облаков в метрах; квадратными скобками обозначены формы облаков: Ci - перистые, Cs - перисто-слоистые, Cc - перисто-кучевые, Ac - высококучевые, As - высокослоистые, Sc - слоисто-кучевые, Ns - слоисто-дождевые, Cu - кучевые, Cb - кучево-дождевые. Подробнее классификацию облаков см. в Атласе облаков (PDF).
  • T - Температура воздуха - температура, измеренная на высоте 2 м над землей.
  • Td - Температура точки росы - температура, при понижении до которой содержащийся в воздухе водяной пар достигнет насыщения.
  • f - Относительная влажность воздуха - влажноcть воздуха, измеренная на высоте 2 м над землей.
  • Te - Эффективная температура - температура, которую ощущает одетый по сезону человек в тени. Характеристика душности погоды. При расчете учитывается влияние влажности воздуха и скорости ветра на теплоощущения человека.
  • Tes - Эффективная температура на солнце - температура, которую ощущает человек, с поправкой на солнечный нагрев. Характеристика знойности погоды. Зависит от высоты солнца над горизонтом, облачности и скорости ветра. Ночью, в пасмурную погоду, а также при ветре 12 м/с и более поправка равна нулю.
  • P - Атмосферное давление - приведенное к уровню моря атмосферное давление.
  • Po - Атмосферное давление - измеренное на уровне метеостанции атмосферное давление.
  • Tmin - Минимальная температура - минимум температуры воздуха на высоте 2 м над землей.
  • Tmax - Максимальная температура - максимум температуры воздуха на высоте 2 м над землей.
  • R - Количество осадков - Количество выпавших осадков за период времени, мм. При наведении курсора мыши на число - период времени, за который выпало указанное количество осадков.
  • R24 - Количество осадков - Количество выпавших осадков за 24 часа, мм.
  • S - Снежный покров - Высота снежного покрова, см. При наведении курсора мыши на число - состояние снежного покрова и степень покрытия местности в баллах.